Location: Lafig�re
(44.4503°N, 4.0357°E)
Time: 15:31:11
(UTC+00:00)

Vanguard 2 Rocket - Pass Details

Date: 29 January 2021
Orbit: 554 x 3325 km, 32.9° (Epoch: 06 March)

Event Time Altitude Azimuth Distance (km) Brightness Sun altitude
Rises 15:00:22 0° 253° (WSW) 6,964 12.6 15.1°
Reaches altitude 10° 15:05:42 10° 248° (WSW) 5,641 12.5 14.4°
Maximum altitude 15:20:18 47° 183° (S) 2,464 9.8 12.5°
Drops below altitude 10° 15:28:57 10° 112° (ESE) 3,427 9.6 11.3°
Sets 15:31:24 0° 106° (ESE) 4,110 9.9 11.0°
